| time (UTC) | temp F | wind direction | speed knots | gust knots | rain 1hr in | rain 24hr in | rain mn in | humidity % | barometer mb |
| 20260507220807 | 55 | 224 | 2.6 | 6.1 | 0.00 | 0.00 | 0.00 | 83 | 1011.3 |
| 20260507220306 | 55 | 243 | 2.6 | 6.1 | 0.00 | 0.00 | 0.00 | 82 | 1011.3 |
| 20260507215806 | 55 | 206 | 2.6 | 6.1 | 0.00 | 0.00 | 0.00 | 81 | 1011.3 |
| 20260507215307 | 55 | 258 | 3.5 | 6.1 | 0.00 | 0.00 | 0.00 | 81 | 1011.4 |
| 20260507214306 | 55 | 202 | 6.1 | 8.7 | 0.00 | 0.00 | 0.00 | 80 | 1011.4 |
| 20260507212807 | 55 | 227 | 2.6 | 4.3 | 0.00 | 0.00 | 0.00 | 81 | 1011.4 |
| 20260507212307 | 55 | 228 | 2.6 | 5.2 | 0.00 | 0.00 | 0.00 | 81 | 1011.3 |
| 20260507211306 | 55 | 256 | 2.6 | 6.1 | 0.00 | 0.00 | 0.00 | 81 | 1011.3 |
| 20260507210806 | 55 | 189 | 2.6 | 6.1 | 0.00 | 0.00 | 0.00 | 81 | 1011.3 |
| 20260507210306 | 55 | 199 | 3.5 | 6.1 | 0.00 | 0.00 | 0.00 | 82 | 1011.3 |
| 20260507205806 | 55 | 196 | 4.3 | 7.0 | 0.00 | 0.00 | 0.00 | 81 | 1011.3 |
| 20260507205307 | 55 | 198 | 6.1 | 8.7 | 0.00 | 0.00 | 0.00 | 81 | 1011.3 |
| 20260507204806 | 55 | 189 | 4.3 | 7.0 | 0.00 | 0.00 | 0.00 | 81 | 1011.3 |
| 20260507204307 | 55 | 247 | 2.6 | 4.3 | 0.00 | 0.00 | 0.00 | 82 | 1011.3 |
| 20260507203806 | 55 | 203 | 2.6 | 5.2 | 0.00 | 0.00 | 0.00 | 82 | 1011.3 |
| 20260507203306 | 55 | 205 | 2.6 | 5.2 | 0.00 | 0.00 | 0.00 | 82 | 1011.4 |
| 20260507202806 | 55 | 225 | 2.6 | 5.2 | 0.00 | 0.00 | 0.00 | 81 | 1011.4 |
| 20260507202307 | 55 | 260 | 2.6 | 7.0 | 0.00 | 0.00 | 0.00 | 82 | 1011.5 |
| 20260507201807 | 55 | 254 | 3.5 | 7.0 | 0.00 | 0.00 | 0.00 | 83 | 1011.5 |
| 20260507201306 | 55 | 265 | 4.3 | 6.1 | 0.00 | 0.00 | 0.00 | 82 | 1011.7 |
| 20260507200806 | 55 | 211 | 3.5 | 6.1 | 0.00 | 0.00 | 0.00 | 82 | 1011.6 |
| 20260507200306 | 55 | 219 | 4.3 | 6.1 | 0.00 | 0.00 | 0.00 | 82 | 1011.6 |
| 20260507195306 | 55 | 186 | 3.5 | 7.8 | 0.00 | 0.00 | 0.00 | 79 | 1011.6 |
| 20260507194807 | 55 | 240 | 4.3 | 8.7 | 0.00 | 0.00 | 0.00 | 81 | 1011.7 |
| 20260507192806 | 54 | 224 | 1.7 | 6.1 | 0.00 | 0.00 | 0.00 | 80 | 1012.2 |
| 20260507192307 | 54 | 182 | 2.6 | 4.3 | 0.00 | 0.00 | 0.00 | 79 | 1012.1 |
| 20260507191806 | 54 | 201 | 1.7 | 2.6 | 0.00 | 0.00 | 0.00 | 80 | 1012.0 |
| 20260507191306 | 54 | 137 | 1.7 | 4.3 | 0.00 | 0.00 | 0.00 | 81 | 1012.1 |
| 20260507190306 | 54 | 156 | 4.3 | 5.2 | 0.00 | 0.00 | 0.00 | 80 | 1012.4 |
| 20260507185806 | 54 | 212 | 2.6 | 4.3 | 0.00 | 0.00 | 0.00 | 81 | 1012.4 |
| 20260507185306 | 54 | 217 | 2.6 | 6.1 | 0.00 | 0.00 | 0.00 | 81 | 1012.3 |
| 20260507184306 | 54 | 182 | 4.3 | 5.2 | 0.00 | 0.00 | 0.00 | 80 | 1012.4 |
| 20260507183306 | 53 | 175 | 4.3 | 6.1 | 0.00 | 0.00 | 0.00 | 81 | 1012.5 |
| 20260507182806 | 53 | 168 | 3.5 | 6.1 | 0.00 | 0.00 | 0.00 | 82 | 1012.5 |
| 20260507182307 | 53 | 190 | 5.2 | 7.0 | 0.00 | 0.00 | 0.00 | 82 | 1012.4 |
| 20260507181806 | 53 | 194 | 6.1 | 7.0 | 0.00 | 0.00 | 0.00 | 84 | 1012.5 |
| 20260507181306 | 54 | 155 | 3.5 | 6.1 | 0.00 | 0.00 | 0.00 | 82 | 1012.4 |
| 20260507180806 | 54 | 195 | 5.2 | 7.8 | 0.00 | 0.00 | 0.00 | 80 | 1012.6 |
| 20260507180306 | 54 | 158 | 2.6 | 7.0 | 0.00 | 0.00 | 0.00 | 80 | 1012.7 |
| 20260507175806 | 55 | 186 | 5.2 | 7.0 | 0.00 | 0.00 | 0.00 | 79 | 1012.6 |
| 20260507175307 | 55 | 142 | 0.9 | 5.2 | 0.00 | 0.00 | 0.00 | 81 | 1012.4 |
| 20260507174806 | 54 | 194 | 0.9 | 4.3 | 0.00 | 0.00 | 0.00 | 81 | 1012.4 |
| 20260507173806 | 53 | 157 | 0.9 | 4.3 | 0.00 | 0.00 | 0.00 | 82 | 1012.9 |
| 20260507173306 | 53 | 102 | 1.7 | 4.3 | 0.00 | 0.00 | 0.00 | 84 | 1012.6 |
| 20260507172806 | 54 | 75 | 0.9 | 4.3 | 0.00 | 0.00 | 0.00 | 82 | 1013.0 |
| 20260507172308 | 54 | 151 | 1.7 | 4.3 | 0.00 | 0.00 | 0.00 | 82 | 1012.9 |
| 20260507171806 | 54 | 239 | 0.9 | 4.3 | 0.00 | 0.00 | 0.00 | 82 | 1013.0 |
| 20260507171306 | 53 | 150 | 1.7 | 4.3 | 0.00 | 0.00 | 0.00 | 84 | 1013.0 |
| 20260507170806 | 54 | 138 | 1.7 | 4.3 | 0.00 | 0.00 | 0.00 | 84 | 1013.1 |
| 20260507170307 | 53 | 95 | 0.9 | 2.6 | 0.00 | 0.00 | 0.00 | 85 | 1013.2 |
| 20260507165307 | 53 | 149 | 0.9 | 2.6 | 0.00 | 0.00 | 0.00 | 84 | 1013.5 |
| 20260507164306 | 53 | 85 | 1.7 | 4.3 | 0.00 | 0.00 | 0.00 | 85 | 1013.3 |
| 20260507163806 | 53 | 44 | 1.7 | 4.3 | 0.00 | 0.00 | 0.00 | 84 | 1013.5 |
| 20260507163306 | 53 | 8 | 0.9 | 4.3 | 0.00 | 0.00 | 0.00 | 83 | 1013.5 |
| 20260507162806 | 53 | 37 | 0.9 | 2.6 | 0.00 | 0.00 | 0.00 | 84 | 1013.5 |
| 20260507162307 | 53 | 116 | 0.9 | 4.3 | 0.00 | 0.00 | 0.00 | 86 | 1013.6 |
| 20260507161806 | 52 | 58 | 0.9 | 2.6 | 0.00 | 0.00 | 0.00 | 84 | 1013.7 |
| 20260507161306 | 52 | 84 | 2.6 | 4.3 | 0.00 | 0.00 | 0.00 | 86 | 1013.7 |
| 20260507160806 | 52 | 157 | 2.6 | 4.3 | 0.00 | 0.00 | 0.00 | 85 | 1013.9 |
| 20260507160306 | 51 | 156 | 0.9 | 1.7 | 0.00 | 0.00 | 0.00 | 86 | 1014.0 |
| 20260507155806 | 51 | 142 | 1.7 | 2.6 | 0.00 | 0.00 | 0.00 | 84 | 1014.2 |
| 20260507155306 | 51 | 141 | 2.6 | 4.3 | 0.00 | 0.00 | 0.00 | 85 | 1014.2 |
| 20260507154806 | 52 | 150 | 1.7 | 2.6 | 0.00 | 0.00 | 0.00 | 88 | 1014.2 |
| 20260507154306 | 52 | 155 | 2.6 | 2.6 | 0.00 | 0.00 | 0.00 | 87 | 1014.0 |
| 20260507153806 | 52 | 192 | 2.6 | 4.3 | 0.00 | 0.00 | 0.00 | 85 | 1014.2 |
| 20260507153306 | 52 | 84 | 0.0 | 1.7 | 0.00 | 0.00 | 0.00 | 84 | 1014.0 |
| 20260507152806 | 52 | 154 | 0.9 | 2.6 | 0.00 | 0.00 | 0.00 | 84 | 1014.2 |
| 20260507152306 | 53 | 148 | 2.6 | 2.6 | 0.00 | 0.00 | 0.00 | 84 | 1014.0 |
| 20260507151806 | 52 | 89 | 1.7 | 2.6 | 0.00 | 0.00 | 0.00 | 85 | 1013.8 |
| 20260507151306 | 52 | 57 | 0.9 | 1.7 | 0.00 | 0.00 | 0.00 | 85 | 1013.8 |
| 20260507150806 | 52 | 137 | 0.0 | 0.9 | 0.00 | 0.00 | 0.00 | 87 | 1014.0 |
| 20260507150306 | 52 | 137 | 0.0 | 2.6 | 0.00 | 0.00 | 0.00 | 87 | 1014.1 |
| 20260507145307 | 52 | 78 | 2.6 | 4.3 | 0.00 | 0.00 | 0.00 | 87 | 1013.9 |
| 20260507144806 | 52 | 104 | 0.9 | 1.7 | 0.00 | 0.00 | 0.00 | 87 | 1014.2 |
| 20260507144307 | 52 | 64 | 0.0 | 0.0 | 0.00 | 0.00 | 0.00 | 86 | 1014.2 |
| 20260507143806 | 52 | 91 | 0.9 | 2.6 | 0.00 | 0.00 | 0.00 | 86 | 1014.3 |
| 20260507143306 | 53 | 82 | 1.7 | 2.6 | 0.00 | 0.00 | 0.00 | 87 | 1014.2 |
| 20260507142806 | 53 | 77 | 0.9 | 1.7 | 0.00 | 0.00 | 0.00 | 87 | 1014.3 |
| 20260507142307 | 53 | 107 | 0.9 | 1.7 | 0.00 | 0.00 | 0.00 | 86 | 1014.4 |
| 20260507141807 | 53 | 111 | 0.9 | 2.6 | 0.00 | 0.00 | 0.00 | 87 | 1014.3 |
| 20260507141306 | 53 | 85 | 1.7 | 4.3 | 0.00 | 0.00 | 0.00 | 88 | 1014.4 |
| 20260507140806 | 53 | 91 | 0.0 | 2.6 | 0.00 | 0.00 | 0.00 | 88 | 1014.3 |
| 20260507140306 | 53 | 111 | 2.6 | 6.1 | 0.00 | 0.00 | 0.00 | 88 | 1014.5 |
| 20260507134806 | 53 | 97 | 2.6 | 4.3 | 0.00 | 0.00 | 0.00 | 89 | 1014.4 |
| 20260507134306 | 53 | 137 | 1.7 | 4.3 | 0.00 | 0.00 | 0.00 | 89 | 1014.6 |
| 20260507133806 | 53 | 171 | 1.7 | 4.3 | 0.00 | 0.00 | 0.00 | 89 | 1014.6 |
| 20260507132806 | 53 | 134 | 0.9 | 2.6 | 0.00 | 0.00 | 0.00 | 90 | 1014.5 |
| 20260507132307 | 53 | 111 | 1.7 | 4.3 | 0.00 | 0.00 | 0.00 | 90 | 1014.4 |
| 20260507131806 | 53 | 104 | 2.6 | 4.3 | 0.00 | 0.00 | 0.00 | 89 | 1014.3 |
| 20260507131306 | 53 | 131 | 1.7 | 4.3 | 0.00 | 0.00 | 0.00 | 90 | 1014.3 |
| 20260507130806 | 53 | 125 | 1.7 | 2.6 | 0.00 | 0.00 | 0.00 | 90 | 1014.2 |
| 20260507130306 | 53 | 158 | 0.0 | 1.7 | 0.00 | 0.00 | 0.00 | 90 | 1014.3 |
| 20260507125807 | 53 | 140 | 0.0 | 1.7 | 0.00 | 0.00 | 0.00 | 91 | 1014.3 |
| 20260507125307 | 53 | 123 | 0.9 | 2.6 | 0.00 | 0.00 | 0.00 | 90 | 1014.2 |
| 20260507124806 | 53 | 95 | 1.7 | 2.6 | 0.00 | 0.00 | 0.00 | 90 | 1014.2 |
| 20260507124306 | 53 | 125 | 0.9 | 1.7 | 0.00 | 0.00 | 0.00 | 92 | 1014.2 |
| 20260507122806 | 53 | 210 | 1.7 | 2.6 | 0.00 | 0.00 | 0.00 | 94 | 1014.3 |
| 20260507122307 | 53 | 240 | 0.9 | 2.6 | 0.00 | 0.00 | 0.00 | 94 | 1014.3 |
| 20260507121805 | 53 | 193 | 1.7 | 2.6 | 0.00 | 0.00 | 0.00 | 93 | 1014.1 |
| 20260507121306 | 53 | 211 | 1.7 | 2.6 | 0.00 | 0.00 | 0.00 | 94 | 1014.1 |
| 20260507120806 | 53 | 195 | 1.7 | 2.6 | 0.00 | 0.00 | 0.00 | 94 | 1013.9 |
| 20260507120306 | 53 | 206 | 0.9 | 2.6 | 0.00 | 0.00 | 0.00 | 95 | 1013.9 |
| 20260507115806 | 53 | 208 | 1.7 | 2.6 | 0.00 | 0.00 | 0.00 | 95 | 1014.0 |
| 20260507115307 | 53 | 198 | 1.7 | 2.6 | 0.00 | 0.00 | 0.00 | 94 | 1014.0 |
| 20260507114805 | 53 | 158 | 0.0 | 1.7 | 0.00 | 0.00 | 0.00 | 95 | 1014.0 |
| 20260507114306 | 53 | 223 | 0.0 | 0.9 | 0.00 | 0.00 | 0.00 | 95 | 1014.0 |
| 20260507113306 | 53 | 61 | 0.0 | 0.0 | 0.00 | 0.00 | 0.00 | 96 | 1013.8 |
| 20260507112806 | 52 | 61 | 0.0 | 0.0 | 0.00 | 0.00 | 0.00 | 96 | 1013.7 |
| 20260507112307 | 52 | 61 | 0.0 | 1.7 | 0.00 | 0.00 | 0.00 | 96 | 1013.6 |
| 20260507111806 | 52 | 317 | 0.0 | 1.7 | 0.00 | 0.00 | 0.00 | 96 | 1013.8 |
| 20260507111306 | 52 | 39 | 0.9 | 2.6 | 0.00 | 0.00 | 0.00 | 96 | 1013.7 |
| 20260507110806 | 52 | 309 | 0.9 | 2.6 | 0.00 | 0.00 | 0.00 | 95 | 1013.6 |
| 20260507110306 | 52 | 19 | 2.6 | 4.3 | 0.00 | 0.00 | 0.00 | 95 | 1013.5 |
| 20260507105805 | 52 | 247 | 0.0 | 0.0 | 0.00 | 0.00 | 0.00 | 95 | 1013.4 |
| 20260507105307 | 52 | 247 | 0.0 | 1.7 | 0.00 | 0.00 | 0.00 | 95 | 1013.4 |
| 20260507104806 | 52 | 258 | 1.7 | 1.7 | 0.00 | 0.00 | 0.00 | 95 | 1013.4 |
| 20260507104306 | 52 | 306 | 0.9 | 1.7 | 0.00 | 0.00 | 0.00 | 95 | 1013.3 |
| 20260507103806 | 52 | 206 | 0.0 | 1.7 | 0.00 | 0.00 | 0.00 | 95 | 1013.3 |
| 20260507103306 | 52 | 204 | 1.7 | 2.6 | 0.00 | 0.00 | 0.00 | 95 | 1013.4 |
| 20260507102806 | 52 | 164 | 1.7 | 2.6 | 0.00 | 0.00 | 0.00 | 95 | 1013.4 |
| 20260507102307 | 53 | 204 | 1.7 | 2.6 | 0.00 | 0.00 | 0.00 | 95 | 1013.5 |
| 20260507101806 | 53 | 176 | 0.0 | 1.7 | 0.00 | 0.00 | 0.00 | 95 | 1013.4 |
| 20260507101306 | 53 | 222 | 0.0 | 2.6 | 0.00 | 0.00 | 0.00 | 95 | 1013.4 |
| 20260507100806 | 53 | 140 | 1.7 | 2.6 | 0.00 | 0.00 | 0.00 | 95 | 1013.5 |
| 20260507100305 | 53 | 56 | 0.0 | 1.7 | 0.00 | 0.00 | 0.00 | 95 | 1013.5 |
| 20260507095806 | 53 | 23 | 1.7 | 2.6 | 0.00 | 0.00 | 0.00 | 95 | 1013.3 |
| 20260507095306 | 53 | 346 | 0.9 | 2.6 | 0.00 | 0.00 | 0.00 | 95 | 1013.2 |
| 20260507094806 | 53 | 260 | 1.7 | 2.6 | 0.00 | 0.00 | 0.00 | 95 | 1013.2 |
| 20260507094305 | 53 | 276 | 0.0 | 2.6 | 0.00 | 0.00 | 0.00 | 95 | 1013.2 |
| 20260507093306 | 53 | 241 | 0.9 | 2.6 | 0.00 | 0.00 | 0.00 | 95 | 1013.1 |
| 20260507092806 | 53 | 181 | 2.6 | 4.3 | 0.00 | 0.00 | 0.00 | 95 | 1013.0 |
| 20260507091306 | 53 | 220 | 1.7 | 2.6 | 0.00 | 0.00 | 0.00 | 95 | 1013.2 |
| 20260507090806 | 53 | 192 | 1.7 | 5.2 | 0.00 | 0.00 | 0.00 | 95 | 1013.2 |
| 20260507090306 | 53 | 207 | 3.5 | 5.2 | 0.00 | 0.00 | 0.00 | 95 | 1013.3 |
| 20260507085306 | 53 | 215 | 0.9 | 2.6 | 0.00 | 0.00 | 0.00 | 95 | 1013.1 |
| 20260507084806 | 53 | 195 | 2.6 | 4.3 | 0.00 | 0.00 | 0.00 | 95 | 1012.9 |
| 20260507084306 | 54 | 180 | 1.7 | 2.6 | 0.00 | 0.00 | 0.00 | 95 | 1012.7 |
| 20260507082806 | 54 | 219 | 2.6 | 5.2 | 0.00 | 0.00 | 0.00 | 95 | 1012.7 |
| 20260507082307 | 54 | 215 | 1.7 | 5.2 | 0.00 | 0.00 | 0.00 | 95 | 1012.8 |
| 20260507081805 | 55 | 231 | 1.7 | 2.6 | 0.00 | 0.00 | 0.00 | 95 | 1012.8 |
| 20260507081306 | 55 | 226 | 0.9 | 2.6 | 0.00 | 0.00 | 0.00 | 95 | 1012.8 |
| 20260507080806 | 55 | 244 | 0.9 | 2.6 | 0.00 | 0.00 | 0.00 | 95 | 1012.9 |
| 20260507080305 | 55 | 220 | 1.7 | 2.6 | 0.00 | 0.00 | 0.00 | 95 | 1012.7 |
| 20260507075307 | 55 | 245 | 2.6 | 4.3 | 0.00 | 0.00 | 0.00 | 95 | 1012.9 |
| 20260507074806 | 55 | 260 | 0.0 | 2.6 | 0.00 | 0.00 | 0.00 | 95 | 1012.7 |
| 20260507074305 | 55 | 209 | 3.5 | 5.2 | 0.00 | 0.00 | 0.00 | 95 | 1012.7 |
| 20260507073806 | 55 | 204 | 0.9 | 4.3 | 0.00 | 0.00 | 0.00 | 95 | 1012.5 |
| 20260507072806 | 55 | 232 | 2.6 | 4.3 | 0.00 | 0.00 | 0.00 | 95 | 1012.2 |
| 20260507071806 | 56 | 229 | 0.9 | 1.7 | 0.00 | 0.00 | 0.00 | 95 | 1011.9 |
| 20260507071306 | 56 | 32 | 0.0 | 1.7 | 0.00 | 0.00 | 0.00 | 95 | 1012.0 |
| 20260507070805 | 56 | 90 | 1.7 | 6.1 | 0.00 | 0.00 | 0.00 | 95 | 1012.1 |
| 20260507070306 | 56 | 177 | 3.5 | 7.0 | 0.00 | 0.00 | 0.00 | 95 | 1011.9 |
| 20260507065806 | 56 | 200 | 1.7 | 5.2 | 0.00 | 0.00 | 0.00 | 95 | 1012.0 |
| 20260507065306 | 56 | 181 | 2.6 | 6.1 | 0.00 | 0.00 | 0.00 | 95 | 1011.8 |
| 20260507064806 | 56 | 127 | 0.0 | 5.2 | 0.00 | 0.00 | 0.00 | 95 | 1011.9 |
| 20260507064306 | 57 | 192 | 2.6 | 5.2 | 0.00 | 0.00 | 0.00 | 95 | 1012.1 |
| 20260507063806 | 57 | 167 | 4.3 | 5.2 | 0.00 | 0.00 | 0.00 | 95 | 1012.0 |
| 20260507063305 | 57 | 217 | 1.7 | 2.6 | 0.00 | 0.00 | 0.00 | 95 | 1012.0 |
| 20260507062806 | 58 | 177 | 4.3 | 6.1 | 0.00 | 0.00 | 0.00 | 95 | 1012.1 |
| 20260507062306 | 59 | 134 | 3.5 | 7.8 | 0.00 | 0.00 | 0.00 | 95 | 1011.9 |
| 20260507061805 | 59 | 95 | 4.3 | 7.8 | 0.00 | 0.00 | 0.00 | 95 | 1012.1 |
| 20260507061306 | 60 | 96 | 1.7 | 5.2 | 0.00 | 0.00 | 0.00 | 95 | 1012.1 |
| 20260507060806 | 60 | 205 | 1.7 | 2.6 | 0.00 | 0.00 | 0.00 | 95 | 1012.0 |
| 20260507055806 | 61 | 167 | 2.6 | 5.2 | 0.00 | 0.00 | 0.00 | 95 | 1012.1 |
| 20260507055306 | 61 | 158 | 2.6 | 4.3 | 0.00 | 0.00 | 0.00 | 95 | 1012.2 |
| 20260507054806 | 61 | 67 | 0.0 | 2.6 | 0.00 | 0.00 | 0.00 | 95 | 1012.3 |
| 20260507054306 | 61 | 37 | 2.6 | 4.3 | 0.00 | 0.00 | 0.00 | 95 | 1012.3 |
| 20260507053306 | 62 | 65 | 0.9 | 5.2 | 0.00 | 0.00 | 0.00 | 95 | 1011.9 |
| 20260507052806 | 62 | 100 | 0.9 | 2.6 | 0.00 | 0.00 | 0.00 | 95 | 1011.7 |
| 20260507052306 | 62 | 34 | 0.9 | 2.6 | 0.00 | 0.00 | 0.00 | 95 | 1011.7 |
| 20260507051805 | 62 | 355 | 3.5 | 5.2 | 0.00 | 0.00 | 0.00 | 95 | 1011.7 |
| 20260507050806 | 62 | 337 | 2.6 | 4.3 | 0.00 | 0.00 | 0.00 | 95 | 1011.3 |
| 20260507050305 | 62 | 37 | 0.9 | 2.6 | 0.00 | 0.00 | 0.00 | 95 | 1010.8 |
| 20260507045806 | 62 | 210 | 0.0 | 1.7 | 0.00 | 0.00 | 0.00 | 95 | 1010.8 |
| 20260507045306 | 62 | 156 | 2.6 | 4.3 | 0.00 | 0.00 | 0.00 | 95 | 1011.0 |
| 20260507044806 | 62 | 162 | 1.7 | 4.3 | 0.00 | 0.00 | 0.00 | 95 | 1011.6 |
| 20260507044306 | 62 | 139 | 0.9 | 2.6 | 0.00 | 0.00 | 0.00 | 95 | 1011.9 |
| 20260507043806 | 63 | 259 | 0.0 | 1.7 | 0.00 | 0.00 | 0.00 | 95 | 1012.0 |
| 20260507043306 | 63 | 283 | 1.7 | 2.6 | 0.00 | 0.00 | 0.00 | 95 | 1012.0 |
| 20260507042307 | 63 | 137 | 1.7 | 4.3 | 0.00 | 0.00 | 0.00 | 95 | 1011.4 |
| 20260507041805 | 63 | 73 | 0.0 | 2.6 | 0.00 | 0.00 | 0.00 | 95 | 1011.6 |
| 20260507041306 | 63 | 55 | 1.7 | 4.3 | 0.00 | 0.00 | 0.00 | 95 | 1012.0 |
| 20260507040805 | 63 | 328 | 2.6 | 4.3 | 0.00 | 0.00 | 0.00 | 95 | 1011.9 |
| 20260507040306 | 63 | 0 | 2.6 | 2.6 | 0.00 | 0.00 | 0.00 | 95 | 1011.8 |
| 20260507035806 | 62 | 339 | 2.6 | 4.3 | 0.00 | 0.00 | 0.00 | 95 | 1011.9 |
| 20260507035306 | 62 | 267 | 2.6 | 2.6 | 0.00 | 0.00 | 0.00 | 95 | 1011.7 |
| 20260507034810 | 62 | 316 | 0.0 | 1.7 | 0.00 | 0.00 | 0.00 | 95 | 1011.7 |
| 20260507034306 | 62 | 15 | 1.7 | 2.6 | 0.00 | 0.00 | 0.00 | 95 | 1011.9 |
| 20260507033806 | 62 | 351 | 2.6 | 2.6 | 0.00 | 0.00 | 0.00 | 95 | 1012.1 |
| 20260507033305 | 63 | 106 | 0.9 | 2.6 | 0.00 | 0.00 | 0.00 | 95 | 1012.0 |
| 20260507032806 | 63 | 217 | 0.9 | 2.6 | 0.00 | 0.00 | 0.00 | 95 | 1012.2 |
| 20260507031806 | 62 | 281 | 2.6 | 4.3 | 0.00 | 0.00 | 0.00 | 95 | 1012.2 |
| 20260507031306 | 62 | 310 | 2.6 | 2.6 | 0.00 | 0.00 | 0.00 | 95 | 1011.8 |
| 20260507030806 | 62 | 225 | 0.0 | 0.9 | 0.00 | 0.00 | 0.00 | 95 | 1011.7 |
| 20260507030306 | 63 | 51 | 0.0 | 2.6 | 0.00 | 0.00 | 0.00 | 95 | 1011.5 |
| 20260507025806 | 62 | 313 | 2.6 | 4.3 | 0.00 | 0.00 | 0.00 | 95 | 1011.6 |
| 20260507025306 | 62 | 282 | 2.6 | 2.6 | 0.00 | 0.00 | 0.00 | 95 | 1011.8 |
| 20260507024805 | 63 | 315 | 1.7 | 2.6 | 0.00 | 0.00 | 0.00 | 96 | 1011.7 |
| 20260507024306 | 63 | 333 | 2.6 | 2.6 | 0.00 | 0.00 | 0.00 | 96 | 1011.6 |
| 20260507023806 | 63 | 277 | 1.7 | 2.6 | 0.00 | 0.00 | 0.00 | 95 | 1011.8 |
| 20260507023305 | 62 | 290 | 2.6 | 4.3 | 0.00 | 0.00 | 0.00 | 95 | 1011.7 |
| 20260507022806 | 63 | 285 | 1.7 | 2.6 | 0.00 | 0.00 | 0.00 | 94 | 1011.6 |
| 20260507022306 | 63 | 238 | 0.0 | 1.7 | 0.00 | 0.00 | 0.00 | 94 | 1011.4 |
| 20260507021806 | 63 | 354 | 1.7 | 1.7 | 0.00 | 0.00 | 0.00 | 92 | 1011.2 |
| 20260507021305 | 63 | 312 | 2.6 | 4.3 | 0.00 | 0.00 | 0.00 | 93 | 1011.4 |
| 20260507020806 | 63 | 314 | 2.6 | 4.3 | 0.00 | 0.00 | 0.00 | 93 | 1011.4 |
| 20260507020306 | 63 | 276 | 1.7 | 2.6 | 0.00 | 0.00 | 0.00 | 93 | 1011.3 |
| 20260507015806 | 63 | 293 | 1.7 | 2.6 | 0.00 | 0.00 | 0.00 | 93 | 1011.3 |
| 20260507015306 | 63 | 311 | 2.6 | 2.6 | 0.00 | 0.00 | 0.00 | 93 | 1011.3 |
| 20260507014306 | 64 | 354 | 0.0 | 1.7 | 0.00 | 0.00 | 0.00 | 91 | 1010.8 |
| 20260507013805 | 64 | 13 | 0.0 | 1.7 | 0.00 | 0.00 | 0.00 | 91 | 1010.7 |
| 20260507013306 | 64 | 231 | 0.0 | 0.0 | 0.00 | 0.00 | 0.00 | 91 | 1011.1 |
| 20260507012307 | 65 | 156 | 0.9 | 2.6 | 0.00 | 0.00 | 0.00 | 88 | 1011.1 |
| 20260507011805 | 65 | 262 | 0.9 | 2.6 | 0.00 | 0.00 | 0.00 | 88 | 1011.3 |
| 20260507011306 | 66 | 305 | 1.7 | 4.3 | 0.00 | 0.00 | 0.00 | 86 | 1011.3 |
| 20260507010305 | 66 | 269 | 3.5 | 6.1 | 0.00 | 0.00 | 0.00 | 84 | 1011.4 |
| 20260507005805 | 66 | 261 | 3.5 | 6.1 | 0.00 | 0.00 | 0.00 | 84 | 1011.5 |
| 20260507005306 | 66 | 254 | 4.3 | 6.1 | 0.00 | 0.00 | 0.00 | 84 | 1011.4 |
| 20260507004806 | 66 | 252 | 2.6 | 4.3 | 0.00 | 0.00 | 0.00 | 84 | 1011.3 |
| 20260507004306 | 66 | 248 | 1.7 | 5.2 | 0.00 | 0.00 | 0.00 | 85 | 1011.4 |
| 20260507003806 | 66 | 245 | 1.7 | 2.6 | 0.00 | 0.00 | 0.00 | 86 | 1011.4 |
| 20260507003305 | 66 | 239 | 1.7 | 4.3 | 0.00 | 0.00 | 0.00 | 84 | 1011.3 |
| 20260507002806 | 66 | 260 | 2.6 | 5.2 | 0.00 | 0.00 | 0.00 | 84 | 1011.3 |
| 20260507002306 | 67 | 256 | 3.5 | 7.0 | 0.00 | 0.00 | 0.00 | 83 | 1011.4 |
| 20260507001806 | 67 | 272 | 2.6 | 6.1 | 0.00 | 0.00 | 0.00 | 83 | 1011.2 |
| 20260507001306 | 67 | 254 | 3.5 | 6.1 | 0.00 | 0.00 | 0.00 | 82 | 1011.1 |
| 20260507000806 | 67 | 299 | 2.6 | 5.2 | 0.00 | 0.00 | 0.00 | 82 | 1011.0 |
| 20260507000306 | 68 | 267 | 2.6 | 6.1 | 0.00 | 0.00 | 0.00 | 81 | 1010.9 |
| 20260506235806 | 68 | 251 | 3.5 | 6.1 | 0.00 | 0.00 | 0.00 | 80 | 1010.9 |
| 20260506235307 | 68 | 227 | 4.3 | 6.1 | 0.00 | 0.00 | 0.00 | 80 | 1010.8 |
| 20260506233805 | 68 | 242 | 1.7 | 5.2 | 0.00 | 0.00 | 0.00 | 80 | 1011.0 |
| 20260506233306 | 68 | 248 | 2.6 | 6.1 | 0.00 | 0.00 | 0.00 | 81 | 1011.1 |
| 20260506232806 | 68 | 231 | 1.7 | 5.2 | 0.00 | 0.00 | 0.00 | 80 | 1011.1 |
| 20260506232306 | 68 | 199 | 5.2 | 7.8 | 0.00 | 0.00 | 0.00 | 79 | 1011.0 |
| 20260506231805 | 69 | 200 | 5.2 | 7.8 | 0.00 | 0.00 | 0.00 | 79 | 1011.0 |
| 20260506231305 | 69 | 202 | 4.3 | 6.1 | 0.00 | 0.00 | 0.00 | 78 | 1011.0 |
| 20260506230805 | 69 | 230 | 2.6 | 4.3 | 0.00 | 0.00 | 0.00 | 78 | 1010.8 |
| 20260506230306 | 69 | 209 | 1.7 | 6.1 | 0.00 | 0.00 | 0.00 | 78 | 1010.6 |
| 20260506225806 | 69 | 223 | 2.6 | 5.2 | 0.00 | 0.00 | 0.00 | 77 | 1010.6 |
| 20260506225306 | 69 | 237 | 4.3 | 7.0 | 0.00 | 0.00 | 0.00 | 77 | 1010.6 |
| 20260506224806 | 69 | 206 | 4.3 | 6.1 | 0.00 | 0.00 | 0.00 | 77 | 1010.5 |
| 20260506224305 | 69 | 205 | 2.6 | 5.2 | 0.00 | 0.00 | 0.00 | 77 | 1010.5 |
| 20260506223806 | 69 | 202 | 3.5 | 7.0 | 0.00 | 0.00 | 0.00 | 77 | 1010.7 |
| 20260506223305 | 69 | 199 | 5.2 | 7.0 | 0.00 | 0.00 | 0.00 | 76 | 1010.5 |
| 20260506222805 | 69 | 201 | 3.5 | 5.2 | 0.00 | 0.00 | 0.00 | 76 | 1010.7 |
| 20260506222306 | 70 | 221 | 2.6 | 5.2 | 0.00 | 0.00 | 0.00 | 77 | 1010.7 |
| 20260506221806 | 70 | 222 | 2.6 | 4.3 | 0.00 | 0.00 | 0.00 | 76 | 1010.7 |
| 20260506221305 | 70 | 197 | 2.6 | 5.2 | 0.00 | 0.00 | 0.00 | 76 | 1010.6 |